DL3NBY Weather Reports


Display with metric or nautical units.
time (UTC)temp
F
wind
direction
speed
MPH
gust
MPH
rain 1hr
in
rain 24hr
in
rain mn
in
humidity
%
barometer
mb
20260506143050 65 225 0.0 4.0 0.00 0.52 0.04 72 1003.7
20260506142107 66 153 0.0 2.0 0.00 0.52 0.04 71 1003.8
20260506141044 67 198 1.0 4.0 0.00 0.52 0.04 68 1003.8
20260506140041 68 257 0.0 4.0 0.00 0.52 0.04 68 1003.8
20260506135038 68 156 0.0 4.0 0.00 0.52 0.04 64 1004.0
20260506133031 66 81 1.0 5.0 0.00 0.52 0.04 68 1003.9
20260506132028 66 234 1.0 3.0 0.00 0.52 0.04 69 1004.0
20260506131025 65 0.0 2.0 0.00 0.52 0.04 70 1004.1
20260506130022 65 180 2.0 6.0 0.00 0.52 0.04 72 1004.1
20260506125019 66 248 1.0 3.0 0.00 0.52 0.04 70 1004.1
20260506124016 66 207 0.0 2.0 0.00 0.52 0.04 68 1004.2
20260506122109 64 187 1.0 3.0 0.00 0.52 0.04 73 1004.4
20260506121106 64 229 0.0 4.0 0.00 0.52 0.04 74 1004.4
20260506114117 64 211 1.0 4.0 0.00 0.52 0.04 74 1004.5
20260506113054 64 270 1.0 6.0 0.00 0.52 0.04 74 1004.5
20260506112050 65 270 1.0 7.0 0.00 0.52 0.04 73 1004.7
20260506111047 64 225 2.0 6.0 0.00 0.52 0.04 74 1004.7
20260506110044 64 256 1.0 6.0 0.00 0.52 0.04 76 1004.7
20260506105043 64 297 2.0 4.0 0.00 0.52 0.04 75 1004.7
20260506104057 63 180 0.0 3.0 0.00 0.52 0.04 77 1004.8
20260506103034 63 315 0.0 3.0 0.00 0.52 0.04 80 1004.8
20260506101028 62 272 2.0 7.0 0.00 0.52 0.04 80 1004.8
20260506100025 62 241 3.0 9.0 0.00 0.52 0.04 82 1004.9
20260506095025 62 317 1.0 8.0 0.00 0.52 0.04 80 1004.9
20260506092113 61 241 4.0 9.0 0.00 0.52 0.04 84 1005.2
20260506091110 60 191 3.0 6.0 0.00 0.52 0.04 85 1005.0
20260506090107 60 242 0.0 4.0 0.00 0.52 0.04 91 1005.1
20260506085103 59 0.0 2.0 0.00 0.52 0.04 92 1005.1
20260506084100 58 252 2.0 6.0 0.00 0.52 0.04 92 1005.1
20260506083057 57 220 1.0 4.0 0.00 0.52 0.04 95 1004.9
20260506081111 58 270 0.0 4.0 0.00 0.52 0.04 95 1004.8
20260506080107 58 206 2.0 6.0 0.00 0.52 0.04 94 1004.6
20260506073038 57 255 2.0 4.0 0.00 0.52 0.04 96 1004.7
20260506072035 57 219 1.0 4.0 0.00 0.52 0.04 98 1004.6
20260506071032 56 225 1.0 4.0 0.00 0.52 0.04 99 1004.7
20260506062016 54 270 0.0 2.0 0.00 0.52 0.04 99 1004.9
20260506061113 54 0 0.0 2.0 0.00 0.52 0.04 99 1004.8
20260506060110 54 270 0.0 5.0 0.00 0.52 0.04 99 1004.9
20260506051054 53 0.0 1.0 0.00 0.52 0.04 99 1005.0
20260506045048 52 0.0 2.0 0.00 0.52 0.04 99 1005.1
20260506043041 52 217 1.0 3.0 0.01 0.52 0.04 99 1004.9
20260506042038 52 201 1.0 3.0 0.01 0.52 0.04 99 1004.8
20260506041055 51 0.0 2.0 0.01 0.52 0.04 99 1004.9
20260506040111 52 180 0.0 2.0 0.01 0.52 0.04 99 1004.8
20260506035029 52 180 0.0 2.0 0.01 0.52 0.04 99 1004.7
20260506034046 52 180 0.0 3.0 0.00 0.51 0.02 99 1004.8
20260506033022 52 188 1.0 4.0 0.00 0.51 0.02 99 1004.7
20260506032039 52 180 0.0 2.0 0.00 0.51 0.02 99 1004.7
20260506031016 53 180 0.0 2.0 0.00 0.51 0.02 99 1004.7
20260506030113 53 158 0.0 3.0 0.00 0.51 0.02 99 1004.8
20260506023124 53 0.0 0.0 0.00 0.51 0.02 99 1004.8
20260506021057 53 0.0 0.0 0.00 0.52 0.02 99 1004.9
20260506020054 53 0.0 0.0 0.00 0.52 0.02 99 1004.9
20260506015050 53 148 0.0 2.0 0.00 0.52 0.02 99 1004.9
20260506014048 53 0.0 0.0 0.00 0.52 0.02 99 1004.9
20260506013044 53 0.0 1.0 0.00 0.52 0.02 99 1005.0
20260506012041 54 0.0 0.0 0.02 0.52 0.02 99 1005.1
20260506011038 54 180 0.0 2.0 0.02 0.52 0.02 99 1005.2
20260506010037 54 0.0 2.0 0.02 0.52 0.02 99 1005.1
20260506005052 54 243 0.0 3.0 0.02 0.52 0.02 99 1005.2
20260506004029 54 180 1.0 2.0 0.02 0.52 0.02 99 1005.4
20260506003025 54 211 2.0 4.0 0.02 0.52 0.02 99 1005.5
20260506002102 54 270 0.0 2.0 0.00 0.50 0.00 99 1005.6
20260506001019 54 218 1.0 2.0 0.00 0.50 0.00 99 1005.6
20260506000016 54 225 0.0 2.0 0.00 0.50 0.00 99 1005.6
20260505235113 54 180 0.0 3.0 0.00 0.50 0.00 99 1005.7
20260505234109 54 180 0.0 2.0 0.00 0.50 0.00 99 1005.8
20260505233107 54 216 1.0 4.0 0.00 0.50 0.00 99 1005.9
20260505231100 54 233 2.0 3.0 0.00 0.50 0.00 99 1005.7
20260505225054 54 180 0.0 3.0 0.00 0.50 0.00 99 1005.8
20260505222045 52 0.0 2.0 0.00 0.50 0.00 99 1005.7
20260505215055 54 0.0 0.0 0.00 0.50 0.50 99 1005.6
20260505214032 54 180 1.0 3.0 0.00 0.50 0.50 99 1005.7
20260505213029 55 0.0 0.0 0.00 0.50 0.50 99 1005.7
20260505212045 54 0.0 0.0 0.00 0.50 0.50 99 1006.0
20260505211022 54 0.0 0.0 0.00 0.50 0.50 99 1006.1
20260505210019 54 0.0 0.0 0.00 0.50 0.50 99 1006.0
20260505205016 54 0.0 0.0 0.00 0.50 0.50 99 1005.7
20260505204113 55 0.0 0.0 0.00 0.50 0.50 99 1005.7
20260505203110 55 195 0.0 3.0 0.01 0.50 0.50 99 1005.5
20260505202107 55 0.0 2.0 0.01 0.50 0.50 99 1005.4
20260505201104 55 0.0 0.0 0.01 0.50 0.50 99 1005.3
20260505200100 55 0.0 1.0 0.01 0.50 0.50 99 1005.4
20260505195057 55 243 0.0 3.0 0.01 0.50 0.50 99 1005.6
20260505193051 55 0.0 0.0 0.00 0.48 0.48 99 1005.7
20260505192047 55 270 0.0 2.0 0.00 0.48 0.48 99 1005.7
20260505191044 55 0.0 2.0 0.00 0.48 0.48 99 1005.6
20260505184034 55 0.0 0.0 0.01 0.48 0.48 99 1005.3
20260505183031 55 0.0 0.0 0.01 0.48 0.48 99 1005.3
20260505182028 55 180 0.0 2.0 0.01 0.48 0.48 99 1005.2
20260505181025 56 0.0 0.0 0.02 0.48 0.48 99 1005.1
20260505174016 55 0.0 2.0 0.09 0.47 0.47 99 1004.7
20260505172110 56 191 1.0 5.0 0.41 0.47 0.47 99 1004.6
20260505171106 56 274 1.0 4.0 0.45 0.46 0.46 99 1004.9
20260505170103 56 251 2.0 8.0 0.41 0.43 0.43 99 1005.1
20260505165100 56 261 2.0 8.0 0.39 0.40 0.40 99 1005.2
20260505164057 57 306 2.0 5.0 0.37 0.38 0.38 99 1005.3
20260505162050 60 221 3.0 10.0 0.05 0.06 0.06 95 1005.1
20260505161107 61 0.0 0.0 0.00 0.01 0.01 91 1004.2
20260505153035 63 0.0 2.0 0.00 0.01 0.01 87 1004.0
20260505151028 64 0 0.0 3.0 0.00 0.01 0.01 86 1004.0